Location: Elende
(51.4317°N, 10.6316°E)
Time: 11:06:18
(UTC+00:00)

Cosmos 1125 Rocket - Pass Details

Date: 18 September 2020
Orbit: 758 x 780 km, 74.0° (Epoch: 25 October)

Event Time Altitude Azimuth Distance (km) Brightness Sun altitude
Rises 18:58:09 0° 175° (S) 3,246 6.5 -15.1°
Reaches altitude 10° 19:00:42 10° 166° (SSE) 2,325 5.6 -15.4°
Maximum altitude 19:05:26 34° 103° (ESE) 1,260 4.1 -16.1°
Drops below altitude 10° 19:10:11 10° 39° (NE) 2,344 5.9 -16.8°
Sets 19:12:45 0° 31° (NNE) 3,276 6.7 -17.2°
